Location: Arrodets-la-Barthe
(43.0306°N, 0.2829°E)
Time: 23:56:51
(UTC+00:00)

Iridium 4 Rocket - Pass Details

Date: 05 June 2022
Orbit: 585 x 902 km, 86.9° (Epoch: 03 July)

Event Time Altitude Azimuth Distance (km) Brightness Sun altitude
Rises 23:11:24 0° 341° (NNW) 3,172 8.1 -23.5°
Reaches altitude 10° 23:14:12 10° 325° (NW) 2,303 6.9 -23.6°
Maximum altitude 23:17:52 20° 280° (W) 1,774 5.6 -23.7°
Enters shadow 23:20:35 14° 244° (WSW) 2,140 5.6 -23.8°
